Probability
0 0 0 0 0 0 0 0 0 0 0 0 0 0 0 0 0 0 0 0 0 0 0 0 0 0 0 0 0 0 0 0 0 0 0 0 0 0 0 0 0 0 0 0
0 0 0 0 0 0 0 0 0 0 0 0 0 0 0 0 0 0 0 0 0 0 0 0 0 0 0 0 0 0 0 0 0 0 0 0 0 0 0 0 0 0 0 0
0 0 0 0 0 0 0 0 0 0 0 0 0 0 0 0 0 0 0 0 0 0 0 0 0 0 0 0 0 0 0 0 0 0 0 0 0 0 0 0 0 0 0 0
0 0 0 0 0 0 0 0 0 0 0 0 0 0 0 0 0 0 0 0 0 0 0 0 0 0 0 0 0 0 0 0 0 0 0 0 0 0 0 0 0 0 0 0
0 0 0 0 0 0 0 0 0 0 0 0 0 0 0 0 0 0 0 0 0 0 0 0 0 0 0 0 0 0 0 0 0 0 0 0 0 0 0 0 0 0 0 0
0 0 0 0 0 0 0 0 0 0 0 0 0 0 0 0 0 0 0 0 0 0 0 0 0 0 0 0 0 0 0 0 0 0 0 0 0 0 0 0 0 0 0 0
0 0 0 0 0 0 0 0 0 0 0 0 0 0 0 0 0 0 0 0 0 0 0 0 0 0 0 0 0 0 0 0 0 0 0 0 0 0 0 0 0 0 0 0
0 0 0 0 0 0 0 0 0 0 0 0 0 0 0 0 0 0 0 0 0 0 0 0 0 0 0 0 0 0 0 0 0 0 0 0 0 0 0 0 0 0 0 0
0 0 0 0 0 0 0 0 0 0 0 0 0 0 0 0 0 0 0 0 0 0 0 0 0 0 0 0 0 0 0 0 0 0 0 0 0 0 0 0 0 0 0 0
0 0 0 0 0 0 0 0 0 0 0 0 0 0 0 0 0 0 0 0 0 0 0 0 0 0 0 0 0 0 0 0 0 0 0 0 0 0 0 0 0 0 0 0
0 0 0 0 0 0 0 0 0 0 0 0 0 0 0 0 0 0 0 0 0 0 0 0 0 0 0 0 0 0 0 0 0 0 0 0 0 0 0 0 0 0 0 0
0 0 0 0 0 0 0 0 0 0 0 0 0 0 0 0 0 0 0 0 0 0 0 0 0 0 0 0 0 0 0 0 0 0 0 0 0 0 0 0 0 0 0 0
0 0 0 0 0 0 0 0 0 0 0 0 0 0 0 0 0 0 0 0 0 0 0 0 0 0 0 0 0 0 0 0 0 0 0 0 0 0 0 0 0 0 0 0
0 0 0 0 0 0 0 0 0 0 0 0 0 0 0 0 0 0 0 0 0 0 0 0 0 0 0 0 0 0 0 0 0 0 0 0 0 0 0 0 0 0 0 0
0 0 0 0 0 0 0 0 0 0 0 0 0 0 0 0 0 0 0 0 0 0 0 0 0 0 0 0 0 0 0 0 0 0 0 0 0 0 0 0 0 0 0 0
0 0 0 0 0 0 0 0 0 0 0 0 0 0 0 0 0 0 0 0 0 0 0 0 0 0 0 0 0 0 0 0 0 0 0 0 0 0 0 0 0 0 0 0
0 0 0 0 0 0 0 0 0 0 0 0 0 0 0 0 0 0 0 0 0 0 0 0 0 0 0 0 0 0 0 0 0 0 0 0 0 0 0 0 0 0 0 0
0 0 0 0 0 0 0 0 0 0 0 0 0 0 0 0 0 0 0 0 0 0 0 0 0 0 0 0 0 0 0 0 0 0 0 0 0 0 0 0 0 0 0 0
0 0 0 0 0 0 0 0 0 0 0 0 0 0 0 0 0 0 0 0 0 0 0 0 0 0 0 0 0 0 0 0 0 0 0 0 0 0 0 0 0 0 0 0
0 0 0 0 0 0 0 0 0 0 0 0 0 0 0 0 0 0 0 0 0 0 0 0 0 0 0 0 0 0 0 0 0 0 0 0 0 0 0 0 0 0 0 0
0 0 0 0 0 0 0 0 0 0 0 0 0 0 0 0 0 0 0 0 0 0 0 0 0 0 0 0 0 0 0 0 0 0 0 0 0 0 0 0 0 0 0 0
0 0 0 0 0 0 0 0 0 0 0 0 0 0 0 0 0 0 0 0 0 0 0 0 0 0 0 0 0 0 0 0 0 0 0 0 0 0 0 0 0 0 0 0
0 0 0 0 0 0 0 0 0 0 0 0 0 0 0 0 0 0 0 0 0 0 0 0 0 0 0 0 0 0 0 0 0 0 0 0 0 0 0 0 0 0 0 0
0 0 0 0 0 0 0 0 0 0 0 0 0 0 0 0 0 0 0 0 0 0 0 0 0 0 0 0 0 0 0 0 0 0 0 0 0 0 0 0 0 0 0 0
0 0 0 0 0 0 0 0 0 0 0 0 0 0 0 0 0 0 0 0 0 0 0 0 0 0 0 0 0 0 0 0 0 0 0 0 0 0 0 0 0 0 0 0
0 0 0 0 0 0 0 0 0 0 0 0 0 0 0 0 0 0 0 0 0 0 0 0 0 0 0 0 0 0 0 0 0 0 0 0 0 0 0 0 0 0 0 0
Height
5672 5673 5675 5677 5678 5679 5680 5683 5687 5691 5693 5694 5699 5706 5713 5719 5724 5728 5733 5736 5741 5746 5751 5754 5757 5759 5762 5764 5766 5767 5769 5771 5773 5774 5774 5774 5774 5773 5772 5771 5769 5767 5764 5762
5661 5662 5663 5662 5663 5664 5667 5670 5675 5678 5679 5681 5686 5693 5701 5707 5714 5719 5724 5728 5732 5738 5743 5747 5750 5753 5756 5758 5759 5761 5763 5765 5766 5767 5768 5768 5768 5767 5766 5764 5762 5759 5757 5755
5647 5649 5648 5648 5649 5650 5653 5658 5662 5664 5666 5668 5673 5680 5689 5696 5703 5708 5714 5719 5723 5730 5736 5740 5744 5747 5750 5752 5754 5755 5757 5758 5760 5761 5761 5761 5761 5760 5758 5756 5754 5752 5750 5747
5634 5635 5634 5634 5636 5636 5640 5645 5647 5649 5651 5656 5661 5666 5677 5684 5692 5699 5706 5711 5716 5723 5729 5734 5737 5740 5743 5746 5748 5750 5751 5752 5753 5754 5755 5754 5754 5752 5751 5749 5747 5744 5741 5738
5622 5621 5619 5620 5624 5623 5628 5630 5632 5635 5638 5642 5649 5654 5665 5673 5682 5691 5699 5704 5709 5716 5722 5727 5730 5733 5737 5740 5742 5743 5745 5746 5747 5748 5748 5747 5746 5745 5743 5741 5739 5736 5733 5729
5609 5607 5606 5608 5610 5610 5614 5616 5618 5621 5623 5629 5642 5643 5652 5666 5676 5684 5691 5696 5702 5709 5715 5720 5723 5727 5731 5734 5736 5737 5739 5740 5740 5741 5740 5740 5739 5737 5735 5733 5730 5727 5723 5719
5596 5596 5595 5596 5597 5599 5601 5605 5608 5609 5611 5619 5633 5631 5643 5662 5669 5676 5683 5689 5696 5702 5708 5713 5717 5721 5724 5727 5729 5731 5732 5733 5733 5733 5733 5732 5731 5729 5727 5725 5722 5719 5715 5710
5586 5587 5586 5585 5587 5589 5591 5595 5599 5603 5606 5615 5620 5622 5639 5653 5659 5666 5674 5681 5688 5695 5701 5706 5710 5714 5717 5720 5723 5724 5725 5726 5726 5726 5726 5725 5723 5721 5719 5716 5713 5710 5706 5702
5578 5578 5578 5577 5577 5578 5581 5584 5592 5596 5600 5606 5611 5620 5632 5643 5651 5659 5667 5675 5682 5689 5694 5699 5704 5708 5711 5714 5716 5718 5719 5719 5719 5719 5718 5717 5715 5712 5710 5707 5704 5700 5696 5692
5572 5571 5570 5569 5568 5570 5574 5579 5583 5587 5594 5601 5608 5615 5627 5638 5647 5656 5663 5671 5677 5683 5688 5693 5698 5702 5705 5707 5709 5711 5712 5712 5712 5711 5710 5709 5706 5704 5701 5698 5695 5691 5687 5682
5568 5567 5566 5564 5564 5565 5568 5572 5577 5584 5591 5599 5606 5616 5626 5635 5644 5653 5660 5667 5673 5678 5683 5687 5692 5696 5699 5701 5703 5705 5705 5705 5705 5704 5702 5700 5698 5695 5692 5689 5685 5681 5677 5672
5566 5564 5563 5563 5562 5562 5564 5569 5575 5582 5589 5596 5604 5616 5624 5632 5640 5648 5655 5662 5667 5673 5677 5682 5686 5690 5693 5695 5697 5698 5698 5698 5697 5696 5695 5692 5690 5686 5683 5680 5676 5672 5667 5662
5565 5564 5563 5563 5565 5564 5564 5568 5573 5581 5587 5595 5603 5616 5622 5630 5637 5644 5651 5658 5663 5669 5673 5677 5681 5685 5687 5689 5691 5692 5691 5691 5690 5689 5687 5684 5681 5678 5674 5670 5666 5662 5656 5651
5565 5564 5564 5565 5566 5567 5569 5572 5574 5579 5586 5595 5604 5614 5622 5629 5636 5642 5648 5654 5659 5664 5669 5673 5676 5679 5682 5684 5684 5685 5684 5684 5682 5681 5678 5675 5672 5669 5665 5661 5656 5651 5645 5639
5566 5565 5564 5565 5566 5568 5571 5574 5577 5582 5589 5597 5606 5614 5622 5629 5635 5641 5646 5651 5656 5661 5665 5668 5671 5674 5676 5677 5678 5677 5677 5676 5674 5672 5669 5666 5663 5659 5655 5650 5645 5639 5633 5626
5567 5567 5567 5568 5569 5571 5574 5577 5581 5585 5591 5598 5606 5614 5620 5627 5633 5638 5644 5648 5653 5657 5660 5663 5666 5668 5670 5670 5670 5670 5669 5667 5665 5663 5660 5657 5653 5649 5644 5640 5634 5628 5621 5613
5570 5569 5570 5572 5574 5576 5579 5581 5585 5589 5595 5602 5609 5616 5621 5627 5632 5637 5641 5646 5650 5653 5656 5658 5660 5662 5663 5663 5663 5662 5660 5659 5656 5654 5651 5647 5643 5639 5634 5629 5623 5616 5608 5601
5573 5573 5574 5577 5579 5581 5585 5586 5590 5594 5599 5604 5610 5615 5621 5625 5630 5635 5639 5642 5646 5649 5651 5653 5654 5655 5656 5655 5655 5654 5652 5650 5648 5645 5641 5638 5633 5629 5624 5618 5611 5604 5596 5587
5575 5576 5578 5580 5582 5584 5587 5590 5593 5597 5601 5606 5610 5615 5619 5623 5628 5632 5635 5638 5641 5643 5646 5647 5648 5648 5648 5648 5647 5645 5644 5642 5639 5636 5632 5628 5624 5619 5613 5606 5599 5592 5583 5574
5577 5578 5580 5582 5584 5586 5590 5592 5594 5599 5602 5606 5609 5613 5617 5621 5626 5629 5631 5633 5636 5638 5640 5641 5641 5641 5641 5640 5639 5638 5636 5633 5630 5627 5623 5619 5614 5608 5601 5595 5587 5579 5571 5562
5577 5579 5581 5583 5585 5588 5591 5593 5596 5601 5603 5605 5608 5611 5615 5618 5622 5624 5626 5629 5631 5632 5633 5634 5634 5634 5634 5633 5632 5630 5628 5625 5622 5618 5613 5609 5603 5597 5590 5583 5575 5567 5559 5550
5576 5579 5581 5583 5586 5590 5590 5592 5596 5598 5600 5603 5606 5609 5612 5615 5617 5620 5622 5624 5625 5627 5627 5628 5628 5628 5627 5626 5624 5622 5619 5616 5613 5608 5604 5598 5592 5586 5579 5571 5563 5555 5546 5536
5574 5578 5580 5583 5586 5587 5589 5591 5594 5596 5598 5601 5603 5606 5608 5611 5613 5615 5617 5619 5620 5621 5622 5622 5621 5621 5619 5618 5616 5614 5611 5607 5603 5598 5593 5587 5581 5574 5567 5559 5551 5542 5532 5522
5572 5575 5578 5580 5582 5584 5587 5589 5591 5594 5596 5598 5601 5603 5605 5608 5609 5611 5613 5614 5615 5616 5616 5615 5615 5614 5612 5610 5608 5605 5602 5598 5593 5588 5583 5576 5570 5563 5555 5547 5538 5529 5518 5507
5570 5572 5574 5577 5580 5582 5584 5586 5589 5591 5594 5596 5598 5600 5603 5604 5606 5608 5609 5610 5610 5611 5610 5610 5608 5607 5605 5602 5600 5597 5593 5588 5583 5578 5572 5566 5559 5552 5544 5535 5525 5515 5503 5489
5567 5570 5572 5575 5577 5580 5582 5584 5587 5589 5592 5594 5596 5598 5600 5601 5603 5604 5605 5605 5606 5605 5604 5603 5601 5599 5597 5594 5591 5588 5583 5579 5573 5568 5562 5555 5548 5541 5533 5523 5512 5499 5486 5471
Wind_Speed
45 47 47 45 46 49 51 52 52 51 50 52 53 52 49 47 44 42 41 41 40 36 32 30 30 29 28 28 27 26 25 24 24 23 24 24 25 26 28 30 30 31 31 33
45 46 45 47 49 51 52 53 52 52 51 53 54 54 52 50 47 45 43 42 41 37 33 30 29 29 29 28 27 26 26 25 25 25 25 26 27 28 30 31 31 32 34 35
45 45 47 49 50 52 53 53 51 51 50 53 55 56 54 52 50 48 45 43 42 38 33 30 30 29 29 28 27 26 26 26 27 27 27 28 29 31 31 32 33 34 36 38
45 45 47 49 50 50 51 49 50 50 51 52 53 56 55 52 51 49 45 43 42 37 33 30 30 30 29 28 27 27 27 28 28 28 29 30 31 32 32 33 35 37 39 41
43 43 45 47 45 46 47 46 48 49 51 52 52 56 55 51 51 48 44 43 41 37 33 30 30 30 29 28 27 27 27 28 29 29 30 31 32 33 34 35 37 39 41 42
39 40 41 41 41 42 43 45 47 49 50 54 50 53 55 49 46 45 43 42 40 36 33 30 31 30 28 28 28 27 27 28 29 30 31 32 33 34 35 37 39 41 42 43
34 34 35 36 38 39 40 41 44 47 51 53 47 52 53 43 41 40 40 40 38 35 32 30 30 30 29 28 27 27 27 28 29 30 31 32 34 35 37 39 40 41 42 43
30 29 29 31 33 35 36 39 42 44 47 46 46 51 47 38 38 38 38 38 36 33 31 30 31 30 29 28 27 27 27 28 29 30 31 33 35 37 39 40 41 42 43 44
25 23 24 26 27 30 34 36 35 39 39 40 43 44 40 36 35 35 35 35 32 31 30 30 30 29 27 27 27 27 27 28 29 31 32 34 36 38 39 40 42 43 44 44
20 19 18 20 23 28 31 32 36 39 34 35 38 40 37 34 33 32 31 30 28 29 29 29 27 26 26 26 26 26 27 28 29 31 33 34 36 38 40 41 42 43 44 45
14 15 12 15 19 21 28 33 37 35 32 29 32 32 29 28 27 26 26 27 27 27 27 26 25 24 24 24 25 25 27 28 30 31 33 34 36 39 40 41 43 44 45 47
12 10 6 8 13 17 23 29 35 35 30 25 24 26 26 26 26 26 27 27 27 26 25 24 23 23 23 23 23 25 26 28 30 31 33 35 37 39 40 42 43 45 47 49
9 8 5 4 10 17 24 31 36 35 29 23 22 22 24 26 27 27 27 26 25 24 23 22 21 20 21 22 23 24 26 28 30 32 33 36 37 39 41 42 44 46 49 51
6 5 3 4 9 16 23 30 34 32 25 21 21 20 23 24 25 25 25 24 23 22 21 20 19 19 20 21 22 24 26 28 30 32 34 36 38 40 42 44 46 48 51 53
4 4 2 6 12 17 22 26 27 25 19 19 21 22 22 23 24 24 23 22 21 20 19 19 19 19 19 21 22 25 27 29 31 33 35 37 39 41 43 45 48 50 53 56
3 6 6 8 12 15 19 22 23 22 21 22 24 25 25 25 24 23 22 20 19 18 18 18 18 18 19 21 24 26 28 30 32 34 36 38 40 42 45 47 49 52 55 58
4 8 10 11 12 14 16 18 19 19 21 23 22 20 20 21 21 21 20 19 18 17 17 17 18 19 21 23 25 28 29 31 33 35 37 39 42 44 46 48 51 54 57 59
7 9 10 11 12 13 16 17 18 19 19 19 19 20 19 19 19 18 18 17 17 17 17 18 19 21 23 25 27 28 30 31 33 36 38 41 43 45 48 51 53 56 58 59
9 9 9 10 10 12 14 15 16 19 21 20 19 19 18 18 17 17 17 18 18 18 19 20 21 22 24 25 26 28 30 32 35 37 40 42 44 47 50 53 55 57 58 59
10 9 10 9 10 11 12 14 15 16 17 17 17 17 16 16 15 15 18 19 19 19 19 20 21 22 24 25 26 29 31 34 36 38 41 43 46 49 51 53 55 56 58 60
12 11 10 9 9 10 11 12 13 14 15 16 16 16 16 16 16 17 17 17 18 19 19 20 21 22 24 25 28 30 32 35 37 39 42 45 48 50 52 53 55 56 59 62
14 13 12 10 10 10 11 11 12 13 14 14 15 15 15 15 15 15 16 16 17 17 18 19 20 22 24 27 29 31 33 36 39 41 44 46 49 50 51 53 55 58 61 65
15 14 14 13 13 11 11 12 12 12 13 13 13 13 13 13 13 14 14 14 15 16 17 19 21 24 26 28 30 32 35 38 40 43 45 47 49 50 51 53 56 60 65 69
16 15 14 14 14 13 13 13 13 13 13 12 12 12 12 12 12 12 13 13 14 16 18 20 22 24 27 29 32 34 37 39 41 44 45 47 48 50 52 56 60 64 69 74
15 14 14 15 15 15 14 14 14 13 13 12 11 11 11 11 11 11 12 13 14 16 18 21 24 26 29 31 33 36 38 40 42 44 45 47 48 51 54 59 63 68 73 79
14 15 15 15 16 16 16 15 14 13 12 11 11 10 10 10 10 11 12 13 15 18 20 23 26 28 30 32 34 36 39 41 43 44 45 47 49 53 57 61 67 73 78 83
Wind_Direction
266 264 262 260 257 254 252 250 249 247 245 244 243 242 239 237 237 238 238 238 238 238 237 237 239 241 244 249 252 253 249 248 249 252 257 264 272 278 284 288 289 289 290 292
267 266 263 259 256 254 253 251 249 247 244 243 242 241 238 236 234 236 236 237 237 235 234 234 236 238 242 248 252 253 250 249 251 255 260 267 274 279 284 287 288 289 291 293
268 266 261 258 256 254 252 251 248 246 242 242 241 239 237 235 233 233 234 235 235 233 231 232 234 236 240 245 250 251 251 252 254 257 262 269 275 280 284 286 288 290 292 294
269 266 262 259 257 254 252 250 246 243 241 239 239 239 234 233 231 231 232 233 234 232 230 230 232 234 237 242 247 250 251 253 255 258 263 269 275 280 283 286 289 291 293 295
271 266 261 258 255 252 250 245 243 240 239 237 235 238 232 230 229 229 229 231 233 230 228 228 230 233 236 240 245 249 252 254 256 259 264 269 275 279 283 287 289 292 294 296
272 266 262 258 253 250 246 241 238 237 236 236 232 235 232 226 227 226 226 229 231 229 227 227 230 232 236 240 244 249 252 254 256 260 264 269 275 279 283 287 290 293 295 296
272 267 263 257 252 247 243 239 237 235 233 234 229 231 230 221 222 222 224 226 227 227 226 227 229 231 235 240 244 249 252 254 257 261 265 270 275 280 284 288 290 293 295 296
275 269 262 257 252 245 240 237 235 234 234 233 229 229 223 218 217 218 220 221 222 222 223 225 226 229 235 240 246 250 253 255 258 262 267 272 277 281 285 288 291 293 294 296
277 268 256 253 246 237 233 231 229 228 227 229 224 222 219 213 214 215 218 218 218 219 221 223 225 229 235 240 246 250 254 257 260 265 270 274 279 283 287 290 292 293 294 295
274 268 259 251 241 234 229 224 220 217 216 221 222 221 214 211 214 216 214 212 214 217 219 221 224 229 234 240 245 251 255 259 263 268 273 277 281 285 288 291 292 294 294 295
279 276 260 247 240 233 223 216 209 206 203 208 217 213 205 204 207 206 204 205 209 213 215 217 221 227 233 239 246 252 257 262 266 271 275 280 284 287 290 291 293 294 295 296
287 287 268 248 231 220 213 206 203 196 190 193 202 202 194 193 191 192 195 200 205 208 210 214 219 227 234 242 249 255 260 265 270 274 278 282 286 288 291 292 294 295 296 297
289 295 290 231 219 212 202 198 198 193 191 193 192 185 185 188 187 189 192 197 201 204 208 214 221 230 239 247 253 258 263 268 273 278 281 284 287 290 292 294 295 296 297 299
310 322 303 221 206 205 198 194 194 193 190 184 178 175 180 183 186 188 191 195 199 203 210 217 226 236 244 251 257 262 267 272 277 281 284 287 289 291 293 295 296 297 299 301
332 24 81 164 186 194 197 198 197 191 179 175 168 175 181 183 185 188 191 195 200 206 213 222 231 240 247 254 261 267 272 276 281 284 287 290 292 293 295 297 298 299 301 302
17 59 93 137 162 174 185 190 191 182 171 160 161 168 175 180 183 187 191 195 201 209 218 227 237 245 253 261 267 272 277 281 284 287 289 292 293 295 297 298 300 301 303 304
76 82 96 122 145 157 168 175 173 164 154 155 163 172 175 178 184 190 195 201 209 217 226 235 244 253 262 268 273 277 281 284 287 289 291 293 295 296 298 299 301 302 304 306
130 114 115 129 147 159 164 172 178 181 181 182 184 185 186 189 194 199 204 211 218 226 235 245 254 262 268 272 276 280 283 286 288 290 292 294 296 297 299 300 302 304 306 307
157 144 142 147 157 161 169 175 182 188 193 197 198 197 198 201 205 209 217 224 232 240 248 255 261 266 271 275 279 282 284 287 289 291 293 295 296 298 300 302 304 306 307 308
180 169 164 164 162 165 171 178 183 191 198 203 207 208 209 214 217 220 227 233 241 249 255 260 265 270 274 277 280 283 286 288 290 292 293 295 297 299 301 303 305 307 308 310
196 186 180 179 175 173 179 184 191 197 202 205 210 214 217 221 224 229 235 240 246 252 257 262 268 272 276 279 282 285 287 289 291 292 294 296 299 301 303 305 306 308 310 311
198 194 191 193 193 195 194 198 203 207 209 211 213 218 222 225 228 233 239 245 250 255 261 266 271 275 279 282 284 287 288 290 292 294 296 299 301 303 304 306 308 310 311 313
202 201 201 202 204 204 207 208 211 213 214 214 215 218 221 225 229 233 239 246 254 261 267 272 276 280 283 285 286 288 290 292 294 297 299 301 303 304 306 308 310 311 313 314
206 208 210 212 212 212 209 210 212 213 213 214 217 220 223 226 230 235 243 252 260 267 273 278 281 283 285 286 288 290 293 295 297 299 301 303 305 307 308 310 312 313 315 316
210 211 210 211 213 214 213 214 212 210 210 212 217 222 225 229 234 242 252 261 268 273 277 281 284 286 287 289 291 293 295 297 299 301 303 305 307 309 311 313 314 316 317 318
209 211 213 213 214 215 215 213 210 208 208 213 218 221 225 232 244 255 263 269 275 280 283 285 287 288 289 291 292 294 297 299 302 303 305 307 309 311 313 315 317 318 319 320